logo meteotoscana

Diretta Meteo Cambridge-Dorch, Stati Uniti (USA)mercoledì 6 maggio ore 10:35

Mappa
Sereno 20 °C Sereno 24 Ore: T.min 17 T.max 26
Ponente Sud Km/h 14.8 Punto di rugiada: 14 °C Umidità: 68% Visibilità: 10 Km
Il sole sorge alle: 05:59 Il sole tramonta alle: 20:02
6 Maggio 2026 10:35 tempo osservato: Sereno Sereno 20 68 1011 vento: Nord S 14.8
6 Maggio 2026 10:15 tempo osservato: Poco Nuvoloso Poco Nuvoloso 20 68 1011 vento: Nord S 13
6 Maggio 2026 09:55 tempo osservato: Molto Nuvoloso Molto Nuvoloso 20 68 1011 vento: Nord S 16.7
6 Maggio 2026 09:35 tempo osservato: Nuvoloso Nuvoloso 20 68 1011 vento: Nord S 22.2
6 Maggio 2026 09:15 tempo osservato: Molto Nuvoloso Molto Nuvoloso 20 64 1011 vento: Nord S 20.3
6 Maggio 2026 08:55 tempo osservato: Poco Nuvoloso Poco Nuvoloso 20 64 1011 vento: Nord S 18.5
6 Maggio 2026 08:35 tempo osservato: Sereno Sereno 20 68 1012 vento: Nord S 13
6 Maggio 2026 08:15 tempo osservato: Sereno Sereno 19 72 1012 vento: Nord S 20.3
6 Maggio 2026 07:55 tempo osservato: Sereno Sereno 19 72 1012 vento: Nord S 18.5
6 Maggio 2026 07:35 tempo osservato: Sereno Sereno 18 72 1011 vento: Nord S 18.5
6 Maggio 2026 07:15 tempo osservato: Sereno Sereno 18 72 1011 vento: Nord S 13
6 Maggio 2026 06:55 tempo osservato: Sereno Sereno 18 72 1011 vento: Nord S 16.7
6 Maggio 2026 06:35 tempo osservato: Sereno Sereno 18 72 1011 vento: Nord S 14.8
6 Maggio 2026 06:15 tempo osservato: Sereno Sereno 17 77 1011 vento: Nord S 13
6 Maggio 2026 05:55 tempo osservato: Sereno Sereno 17 77 1011 vento: Nord N 11.1
6 Maggio 2026 05:35 tempo osservato: Sereno Sereno 18 72 1011 vento: Nord S 13
6 Maggio 2026 05:15 tempo osservato: Sereno Sereno 18 72 1011 vento: Nord S 16.7
6 Maggio 2026 04:55 tempo osservato: Sereno Sereno 18 72 1011 vento: Nord S 20.3
6 Maggio 2026 04:35 tempo osservato: Sereno Sereno 18 72 1011 vento: Nord S 16.7
6 Maggio 2026 04:15 tempo osservato: Sereno Sereno 18 72 1011 vento: Nord S 16.7
6 Maggio 2026 03:55 tempo osservato: Sereno Sereno 18 77 1011 vento: Nord S 20.3
6 Maggio 2026 03:35 tempo osservato: Sereno Sereno 18 77 1012 vento: Nord S 16.7
6 Maggio 2026 03:15 tempo osservato: Sereno Sereno 18 77 1012 vento: Nord S 16.7
6 Maggio 2026 02:55 tempo osservato: Sereno Sereno 18 77 1012 vento: Nord S/SO 18.5
6 Maggio 2026 02:35 tempo osservato: Sereno Sereno 19 72 1012 vento: Nord S 22.2
6 Maggio 2026 02:15 tempo osservato: Sereno Sereno 19 72 1012 vento: Nord S 18.5
6 Maggio 2026 01:55 tempo osservato: Sereno Sereno 19 72 1012 vento: Nord S 18.5
6 Maggio 2026 01:35 tempo osservato: Sereno Sereno 19 77 1012 vento: Nord S 16.7
6 Maggio 2026 01:15 tempo osservato: Sereno Sereno 19 77 1012 vento: Nord S 16.7
6 Maggio 2026 00:55 tempo osservato: Sereno Sereno 20 72 1012 vento: Nord S 22.2
6 Maggio 2026 00:35 tempo osservato: Sereno Sereno 20 72 1012 vento: Nord S 20.3
6 Maggio 2026 00:15 tempo osservato: Sereno Sereno 20 72 1012 vento: Nord S 14.8
5 Maggio 2026 23:55 tempo osservato: Sereno Sereno 20 72 1012 vento: Nord S 25.9
5 Maggio 2026 23:35 tempo osservato: Sereno Sereno 20 72 1012 vento: Nord S 22.2
5 Maggio 2026 23:15 tempo osservato: Sereno Sereno 20 72 1012 vento: Nord S 24
5 Maggio 2026 22:55 tempo osservato: Sereno Sereno 20 72 1012 vento: Nord S 24
5 Maggio 2026 22:35 tempo osservato: Sereno Sereno 20 72 1012 vento: Nord S 22.2
5 Maggio 2026 22:15 tempo osservato: Sereno Sereno 20 72 1012 vento: Nord S 18.5
5 Maggio 2026 21:55 tempo osservato: Sereno Sereno 20 72 1012 vento: Nord S 18.5
5 Maggio 2026 21:30 tempo osservato: Sereno Sereno 20 72 1012 vento: Nord S/SE 13
5 Maggio 2026 21:15 tempo osservato: Sereno Sereno 20 72 1012 vento: Nord S 16.7
5 Maggio 2026 20:55 tempo osservato: Sereno Sereno 20 72 1011 vento: Nord S 20.3
5 Maggio 2026 20:35 tempo osservato: Sereno Sereno 21 68 1011 vento: Nord S 20.3
5 Maggio 2026 20:15 tempo osservato: Sereno Sereno 21 64 1011 vento: Nord S 24
5 Maggio 2026 19:55 tempo osservato: Sereno Sereno 22 60 1011 vento: Nord S 27.8
5 Maggio 2026 19:35 tempo osservato: Sereno Sereno 22 60 1011 vento: Nord S 22.2
5 Maggio 2026 19:15 tempo osservato: Sereno Sereno 23 56 1011 vento: Nord S 25.9
5 Maggio 2026 18:55 tempo osservato: Sereno Sereno 23 53 1011 vento: Nord S 25.9
5 Maggio 2026 18:35 tempo osservato: Sereno Sereno 23 53 1010 vento: Nord S 31.5
5 Maggio 2026 18:15 tempo osservato: Sereno Sereno 24 50 1011 vento: Nord S 27.8
5 Maggio 2026 17:55 tempo osservato: Sereno Sereno 24 47 1010 vento: Nord S 31.5
5 Maggio 2026 17:35 tempo osservato: Sereno Sereno 25 44 1010 vento: Nord S 33.3
5 Maggio 2026 17:15 tempo osservato: Sereno Sereno 25 44 1010 vento: Nord S 33.3
5 Maggio 2026 16:55 tempo osservato: Sereno Sereno 26 41 1010 vento: Nord S 25.9
5 Maggio 2026 16:35 tempo osservato: Sereno Sereno 26 41 1010 vento: Nord S 35.2
5 Maggio 2026 16:15 tempo osservato: Sereno Sereno 26 44 1011 vento: Nord S/SE 24
5 Maggio 2026 15:55 tempo osservato: Sereno Sereno 26 44 1011 vento: Nord S 29.6
5 Maggio 2026 15:35 tempo osservato: Sereno Sereno 26 44 1011 vento: Nord S 27.8
5 Maggio 2026 15:15 tempo osservato: Sereno Sereno 26 44 1011 vento: Nord S 31.5
5 Maggio 2026 14:55 tempo osservato: Sereno Sereno 26 44 1012 vento: Nord S 25.9
5 Maggio 2026 14:35 tempo osservato: Sereno Sereno 26 47 1012 vento: Nord S/SE 18.5
5 Maggio 2026 14:15 tempo osservato: Sereno Sereno 26 44 1012 vento: Nord S 18.5
5 Maggio 2026 13:55 tempo osservato: Sereno Sereno 26 41 1012 vento: Nord S 24
5 Maggio 2026 13:35 tempo osservato: Sereno Sereno 25 44 1012 vento: Nord S 20.3
5 Maggio 2026 13:15 tempo osservato: Sereno Sereno 25 47 1013 vento: Nord S 14.8
5 Maggio 2026 12:55 tempo osservato: Sereno Sereno 25 47 1013 vento: Nord S 20.3
5 Maggio 2026 12:35 tempo osservato: Sereno Sereno 24 50 1013 vento: Nord S 16.7
5 Maggio 2026 12:15 tempo osservato: Sereno Sereno 24 47 1013 vento: Nord S/SO 20.3
5 Maggio 2026 11:35 tempo osservato: Sereno Sereno 23 49 1013 vento: Nord S 14.8
5 Maggio 2026 11:15 tempo osservato: Sereno Sereno 22 49 1013 vento: Nord S/SO 20.3
5 Maggio 2026 10:55 tempo osservato: Sereno Sereno 22 49 1014 vento: Nord N 9.3
5 Maggio 2026 10:35 tempo osservato: Sereno Sereno 21 52 1013 vento: Nord S 16.7